User: anonymous   Login
Location: Pilipovskiye Korichintsy
(49.1833°N, 27.4667°E)
Time: 17:05:47
(UTC+00:00)
Language:

COSMOS 2406 - Orbit

View from above orbital plane
View from above orbital plane
View from above satellite
View from above satellite

Ground track
Ground track

The orbit data is extracted from the following two-line orbital elements,

1 28352U 04021A   20271.06589438 -.00000188  00000-0 -77413-4 0  9997
2 28352  71.0052 143.3643 0011541  95.6583 264.5854 14.11694785839896
Epoch (UTC): 27 September 2020 01:34:53
Eccentricity: 0.0011541
inclination: 71.0052°
perigee height: 845 km
apogee height: 862 km
right ascension of ascending node: 143.3643°
argument of perigee: 95.6583°
revolutions per day: 14.11694785
mean anomaly at epoch: 264.5854°
orbit number at epoch: 83989

The dashed part of the orbit path shows where the satellite is in the earth's shadow,  

DLR